Air Quality Table

TIMESTAMP NO2 SO2 O3 PM10 TEMP HUM AIRPRES WS WD NO
2021-06-18 12:00 17.08 ug/m3 1.82 ug/m3 81.66 ug/m3 17.11 ug/m3 23.93 C 74.58 % 1,011.53 mbar 4.64 m/s 165.48 Deg 0.88 ug/m3
2021-06-18 11:00 16.54 ug/m3 1.59 ug/m3 85.67 ug/m3 8.8 ug/m3 23.64 C 76.74 % 1,011.72 mbar 4.19 m/s 157.88 Deg 0.87 ug/m3
2021-06-18 10:00 22.67 ug/m3 1.44 ug/m3 85.99 ug/m3 9.47 ug/m3 23.69 C 73.77 % 1,011.86 mbar 3.09 m/s 167.12 Deg 1.09 ug/m3
2021-06-18 09:00 23.71 ug/m3 1.66 ug/m3 88.56 ug/m3 11.8 ug/m3 23.5 C 70.89 % 1,011.77 mbar 2.45 m/s 170.05 Deg 1.16 ug/m3
2021-06-18 08:00 23.85 ug/m3 1.69 ug/m3 85.49 ug/m3 19.11 ug/m3 22.94 C 79.97 % 1,011.63 mbar 1.83 m/s 149 Deg 1.19 ug/m3
2021-06-18 07:00 28.83 ug/m3 1.69 ug/m3 79.65 ug/m3 15.24 ug/m3 22.38 C 82.38 % 1,011.44 mbar 1.31 m/s 154.67 Deg 1.26 ug/m3
2021-06-18 06:00 29.39 ug/m3 1.76 ug/m3 80.4 ug/m3 18.41 ug/m3 21.59 C 84.72 % 1,011.27 mbar 0.35 m/s 152.28 Deg 1.19 ug/m3
2021-06-18 05:00 32.29 ug/m3 1.65 ug/m3 63.57 ug/m3 12.58 ug/m3 21.25 C 85.16 % 1,010.84 mbar 0.46 m/s 141.85 Deg 1.23 ug/m3
2021-06-18 04:00 26.2 ug/m3 1.65 ug/m3 78.34 ug/m3 12.62 ug/m3 21.34 C 84.41 % 1,010.89 mbar 0.29 m/s 147.93 Deg 1.08 ug/m3
2021-06-18 03:00 22.31 ug/m3 1.53 ug/m3 77.59 ug/m3 10.14 ug/m3 21.64 C 83.39 % 1,010.38 mbar 1.39 m/s 209.52 Deg 0.94 ug/m3
2021-06-18 02:00 25.77 ug/m3 1.7 ug/m3 74.78 ug/m3 9.12 ug/m3 21.71 C 82.68 % 1,010.55 mbar 1.5 m/s 194.53 Deg 0.98 ug/m3
2021-06-18 01:00 19.12 ug/m3 1.42 ug/m3 84.69 ug/m3 12.98 ug/m3 21.76 C 82.67 % 1,010.38 mbar 2 m/s 171.58 Deg 0.87 ug/m3
2021-06-18 00:00 21.71 ug/m3 1.62 ug/m3 80.53 ug/m3 23.15 ug/m3 21.86 C 82.12 % 1,010.31 mbar 2.8 m/s 154.38 Deg 0.89 ug/m3
2021-06-17 23:00 27.86 ug/m3 1.45 ug/m3 71.62 ug/m3 26.25 ug/m3 21.7 C 81.65 % 1,011.22 mbar 1.92 m/s 137.95 Deg 1.03 ug/m3
2021-06-17 22:00 30.27 ug/m3 1.74 ug/m3 75.15 ug/m3 20.56 ug/m3 21.84 C 80.2 % 1,011.90 mbar 0.57 m/s 171.32 Deg 1 ug/m3
2021-06-17 21:00 32.61 ug/m3 1.69 ug/m3 74.66 ug/m3 22.02 ug/m3 22.02 C 78.83 % 1,011.63 mbar 0.9 m/s 241.47 Deg 1 ug/m3
2021-06-17 20:00 26.27 ug/m3 1.56 ug/m3 77.84 ug/m3 35 ug/m3 22.26 C 77.11 % 1,010.88 mbar 2.16 m/s 180.73 Deg 0.85 ug/m3
2021-06-17 19:00 23.36 ug/m3 1.71 ug/m3 83.43 ug/m3 34.58 ug/m3 22.79 C 74.07 % 1,010.69 mbar 3.1 m/s 183.25 Deg 0.77 ug/m3
2021-06-17 18:00 20.69 ug/m3 1.58 ug/m3 89.71 ug/m3 19.35 ug/m3 23.47 C 70.25 % 1,010.62 mbar 3.06 m/s 191.05 Deg 0.7 ug/m3
2021-06-17 17:00 18.55 ug/m3 1.67 ug/m3 90.52 ug/m3 17.9 ug/m3 23.83 C 68.17 % 1,010.66 mbar 3.51 m/s 188.45 Deg 0.69 ug/m3
2021-06-17 16:00 18.42 ug/m3 1.77 ug/m3 91.74 ug/m3 13.14 ug/m3 24.17 C 65.99 % 1,010.88 mbar 3.68 m/s 200.5 Deg 0.68 ug/m3
2021-06-17 15:00 18.84 ug/m3 1.71 ug/m3 91.62 ug/m3 8.79 ug/m3 24.2 C 66.25 % 1,011.12 mbar 3.78 m/s 186.33 Deg 0.73 ug/m3
2021-06-17 14:00 17.76 ug/m3 1.71 ug/m3 91.97 ug/m3 8.06 ug/m3 24.06 C 68.47 % 1,011.38 mbar 4.19 m/s 186.1 Deg 0.73 ug/m3
2021-06-17 13:00 17.24 ug/m3 1.46 ug/m3 92.77 ug/m3 9.49 ug/m3 24.05 C 68.41 % 1,011.33 mbar 4.46 m/s 177.43 Deg 0.76 ug/m3
2021-06-17 12:00 19.26 ug/m3 1.72 ug/m3 94.52 ug/m3 7.34 ug/m3 24.07 C 68.15 % 1,011.50 mbar 4.42 m/s 177.25 Deg 0.85 ug/m3
2021-06-17 11:00 17.83 ug/m3 1.67 ug/m3 93.03 ug/m3 10.42 ug/m3 23.91 C 67.35 % 1,011.61 mbar 4.4 m/s 188.32 Deg 0.82 ug/m3
2021-06-17 10:00 16.5 ug/m3 1.62 ug/m3 91.89 ug/m3 15.68 ug/m3 23.34 C 71.33 % 1,011.27 mbar 3.92 m/s 175.6 Deg 0.91 ug/m3
2021-06-17 09:00 16.2 ug/m3 1.63 ug/m3 95.74 ug/m3 26.48 ug/m3 22.89 C 76.33 % 1,010.96 mbar 3.79 m/s 167.82 Deg 0.93 ug/m3
2021-06-17 08:00 17.59 ug/m3 1.6 ug/m3 99.16 ug/m3 29.42 ug/m3 22.56 C 78.39 % 1,010.62 mbar 3.39 m/s 164.43 Deg 1 ug/m3
2021-06-17 07:00 32.96 ug/m3 1.7 ug/m3 88.56 ug/m3 19.89 ug/m3 22.17 C 81.19 % 1,010.51 mbar 2.03 m/s 171.95 Deg 1.35 ug/m3
2021-06-17 06:00 41.08 ug/m3 1.63 ug/m3 63.46 ug/m3 16.08 ug/m3 21.12 C 86.61 % 1,010.37 mbar 1.29 m/s 209.45 Deg 1.53 ug/m3
2021-06-17 05:00 37.6 ug/m3 1.66 ug/m3 64.02 ug/m3 18.61 ug/m3 20.69 C 88.08 % 1,010.06 mbar 1.34 m/s 224.87 Deg 1.37 ug/m3
2021-06-17 04:00 34.12 ug/m3 1.77 ug/m3 64.33 ug/m3 12.05 ug/m3 20.9 C 87.96 % 1,009.61 mbar 1.39 m/s 211.5 Deg 1.13 ug/m3
2021-06-17 03:00 27.71 ug/m3 1.76 ug/m3 65.55 ug/m3 13.89 ug/m3 20.98 C 87 % 1,009.63 mbar 1.41 m/s 202.45 Deg 0.95 ug/m3
2021-06-17 02:00 26.34 ug/m3 1.64 ug/m3 80.6 ug/m3 12.77 ug/m3 21.04 C 85.33 % 1,010.22 mbar 1.2 m/s 222.78 Deg 0.98 ug/m3
2021-06-17 01:00 27.46 ug/m3 1.73 ug/m3 80.88 ug/m3 17.25 ug/m3 21.19 C 82.41 % 1,010.55 mbar 1.28 m/s 218.37 Deg 0.92 ug/m3
2021-06-17 00:00 36.35 ug/m3 1.73 ug/m3 71.97 ug/m3 13.75 ug/m3 21.6 C 79.44 % 1,010.50 mbar 1.76 m/s 205.23 Deg 1 ug/m3
2021-06-16 23:00 32.62 ug/m3 1.9 ug/m3 76.84 ug/m3 13.88 ug/m3 21.94 C 77.76 % 1,010.39 mbar 2.49 m/s 184.08 Deg 0.92 ug/m3
2021-06-16 22:00 32.28 ug/m3 1.64 ug/m3 77.26 ug/m3 17.23 ug/m3 22.08 C 77.53 % 1,010.28 mbar 2.75 m/s 187.33 Deg 0.86 ug/m3
2021-06-16 21:00 27 ug/m3 1.58 ug/m3 78.86 ug/m3 18.92 ug/m3 22.28 C 74.91 % 1,009.87 mbar 2.81 m/s 188.28 Deg 0.74 ug/m3
2021-06-16 20:00 26.49 ug/m3 1.6 ug/m3 83.6 ug/m3 30.01 ug/m3 22.64 C 67.76 % 1,009.49 mbar 3.48 m/s 191.75 Deg 0.74 ug/m3
2021-06-16 19:00 22.64 ug/m3 1.97 ug/m3 85.92 ug/m3 17.91 ug/m3 23.21 C 65.04 % 1,009.31 mbar 4.03 m/s 186.88 Deg 0.67 ug/m3
2021-06-16 18:00 19.76 ug/m3 1.96 ug/m3 85.55 ug/m3 16.74 ug/m3 23.78 C 62.47 % 1,009.11 mbar 4.09 m/s 190.72 Deg 0.65 ug/m3
2021-06-16 17:00 20.92 ug/m3 1.73 ug/m3 87.44 ug/m3 14.29 ug/m3 23.98 C 60.07 % 1,009.19 mbar 4.73 m/s 189.45 Deg 0.72 ug/m3
2021-06-16 16:00 15.06 ug/m3 1.78 ug/m3 90.25 ug/m3 10.82 ug/m3 24.02 C 59.69 % 1,009.55 mbar 4.58 m/s 165.1 Deg 0.57 ug/m3
2021-06-16 15:00 12.27 ug/m3 1.77 ug/m3 94.83 ug/m3 7.55 ug/m3 23.86 C 61.55 % 1,009.75 mbar 4.83 m/s 159.05 Deg 0.56 ug/m3
2021-06-16 14:00 3.93 ug/m3 2.13 ug/m3 99.25 ug/m3 6.33 ug/m3 23.97 C 59.88 % 1,009.84 mbar 4.92 m/s 158.25 Deg 24.32 ug/m3
2021-06-16 13:00 0 ug/m3 2.01 ug/m3 98.06 ug/m3 6.45 ug/m3 23.89 C 59.64 % 1,009.97 mbar 4.98 m/s 158.25 Deg 0 ug/m3
2021-06-16 12:00 0 ug/m3 1.81 ug/m3 96.07 ug/m3 6.54 ug/m3 24.22 C 47.29 % 1,010.01 mbar 4.51 m/s 157.69 Deg 0 ug/m3
2021-06-16 11:00 0 ug/m3 1.74 ug/m3 88.16 ug/m3 8.06 ug/m3 24.68 C 43 % 1,010.09 mbar 3.65 m/s 150.52 Deg 0 ug/m3
2021-06-16 10:00 0 ug/m3 1.97 ug/m3 90.81 ug/m3 9.82 ug/m3 24.74 C 40.87 % 1,010.00 mbar 2.37 m/s 161.08 Deg 0 ug/m3
2021-06-16 09:00 0 ug/m3 1.63 ug/m3 89.34 ug/m3 15.46 ug/m3 24.12 C 57.09 % 1,009.93 mbar 2.13 m/s 137.2 Deg 0 ug/m3
2021-06-16 08:00 0 ug/m3 1.87 ug/m3 83.57 ug/m3 15.9 ug/m3 23.55 C 65.06 % 1,009.80 mbar 1.2 m/s 143.83 Deg 0 ug/m3
2021-06-16 07:00 0 ug/m3 1.71 ug/m3 84.72 ug/m3 15.15 ug/m3 22.78 C 72.67 % 1,009.84 mbar 0.69 m/s 86.7 Deg 0 ug/m3
2021-06-16 06:00 0 ug/m3 1.77 ug/m3 85.79 ug/m3 20.37 ug/m3 21.38 C 78.39 % 1,009.78 mbar 0.82 m/s 104.67 Deg 0 ug/m3
2021-06-16 05:00 0 ug/m3 1.47 ug/m3 83.07 ug/m3 13.7 ug/m3 20.72 C 81.04 % 1,009.49 mbar 1.11 m/s 145.68 Deg 0 ug/m3
2021-06-16 04:00 0 ug/m3 1.79 ug/m3 83.83 ug/m3 8.4 ug/m3 20.6 C 80.26 % 1,009.30 mbar 1.2 m/s 152.88 Deg 0 ug/m3
2021-06-16 03:00 0 ug/m3 1.76 ug/m3 81.73 ug/m3 7.64 ug/m3 20.75 C 79.26 % 1,009.51 mbar 1.43 m/s 140.28 Deg 0 ug/m3
2021-06-16 02:00 0 ug/m3 1.53 ug/m3 83.41 ug/m3 10.21 ug/m3 21.04 C 77.81 % 1,009.92 mbar 1.99 m/s 139.5 Deg 0 ug/m3
2021-06-16 01:00 0 ug/m3 1.73 ug/m3 77.61 ug/m3 17.29 ug/m3 21.25 C 74.85 % 1,010.13 mbar 2.39 m/s 133.07 Deg 0 ug/m3
2021-06-16 00:00 0 ug/m3 1.86 ug/m3 75.13 ug/m3 13.44 ug/m3 21.42 C 73.88 % 1,010.35 mbar 2.43 m/s 126.5 Deg 0 ug/m3
2021-06-15 23:00 0 ug/m3 1.67 ug/m3 82.4 ug/m3 9.54 ug/m3 21.62 C 74.33 % 1,010.38 mbar 2.92 m/s 128.12 Deg 0 ug/m3
2021-06-15 22:00 0 ug/m3 1.78 ug/m3 87.31 ug/m3 14.56 ug/m3 21.84 C 73.7 % 1,010.24 mbar 3.5 m/s 126.02 Deg 0 ug/m3
2021-06-15 21:00 0 ug/m3 1.6 ug/m3 90.38 ug/m3 10.19 ug/m3 22.01 C 73.54 % 1,009.85 mbar 3.99 m/s 123.87 Deg 0 ug/m3
2021-06-15 20:00 0 ug/m3 1.75 ug/m3 93.95 ug/m3 7.83 ug/m3 22.37 C 67.35 % 1,009.57 mbar 3.61 m/s 117.52 Deg 0 ug/m3
2021-06-15 19:00 0 ug/m3 1.81 ug/m3 95.36 ug/m3 9.59 ug/m3 22.96 C 63.45 % 1,009.21 mbar 4.41 m/s 108.62 Deg 0 ug/m3
2021-06-15 18:00 0 ug/m3 1.39 ug/m3 98.39 ug/m3 12.46 ug/m3 23.32 C 62.67 % 1,008.90 mbar 5.18 m/s 109.77 Deg 0 ug/m3
2021-06-15 17:00 0 ug/m3 1.72 ug/m3 99.69 ug/m3 16.57 ug/m3 23.39 C 72.55 % 1,008.95 mbar 5.45 m/s 109.07 Deg 0 ug/m3
2021-06-15 16:00 0 ug/m3 1.87 ug/m3 99.89 ug/m3 10.4 ug/m3 23.64 C 75.18 % 1,008.66 mbar 6.21 m/s 105.17 Deg 0 ug/m3
2021-06-15 15:00 0 ug/m3 2.1 ug/m3 100.02 ug/m3 10.72 ug/m3 23.75 C 78.58 % 1,008.79 mbar 6.06 m/s 105.2 Deg 0 ug/m3
2021-06-15 14:00 0 ug/m3 1.55 ug/m3 105.13 ug/m3 14.06 ug/m3 23.85 C 81.54 % 1,008.81 mbar 5.29 m/s 103.05 Deg 0 ug/m3
2021-06-15 13:00 0 ug/m3 1.71 ug/m3 111.57 ug/m3 23.04 ug/m3 24.23 C 82.09 % 1,008.88 mbar 5.05 m/s 91.68 Deg 0 ug/m3
2021-06-15 12:00 0 ug/m3 1.7 ug/m3 120.26 ug/m3 14.49 ug/m3 24.48 C 76.43 % 1,008.94 mbar 3.91 m/s 63.38 Deg 0 ug/m3
2021-06-15 11:00 0 ug/m3 1.84 ug/m3 120.33 ug/m3 16.86 ug/m3 24.46 C 72.91 % 1,008.76 mbar 4.15 m/s 43.83 Deg 0 ug/m3
2021-06-15 10:00 0 ug/m3 1.68 ug/m3 110.2 ug/m3 20.24 ug/m3 24.63 C 73.16 % 1,008.36 mbar 3.81 m/s 64.15 Deg 0 ug/m3
2021-06-15 09:00 0 ug/m3 1.72 ug/m3 95.63 ug/m3 25.14 ug/m3 24.19 C 79.63 % 1,008.09 mbar 3.27 m/s 88.28 Deg 0 ug/m3
2021-06-15 08:00 0 ug/m3 1.56 ug/m3 76 ug/m3 31.62 ug/m3 23.68 C 83.39 % 1,007.72 mbar 3.73 m/s 212.9 Deg 0 ug/m3
2021-06-15 07:00 0 ug/m3 1.71 ug/m3 80.34 ug/m3 21.32 ug/m3 23.06 C 84.15 % 1,007.30 mbar 2.83 m/s 301.28 Deg 0 ug/m3
2021-06-15 06:00 0 ug/m3 1.46 ug/m3 76.52 ug/m3 8.95 ug/m3 22.06 C 84.2 % 1,007.27 mbar 2.15 m/s 301.4 Deg 0 ug/m3
2021-06-15 05:00 0 ug/m3 1.6 ug/m3 80.14 ug/m3 4.77 ug/m3 21.75 C 88.09 % 1,007.21 mbar 1.71 m/s 295.27 Deg 0 ug/m3
2021-06-15 04:00 0 ug/m3 1.46 ug/m3 84.48 ug/m3 6.4 ug/m3 21.82 C 85.83 % 1,007.30 mbar 1.37 m/s 273.92 Deg 0 ug/m3
2021-06-15 03:00 0 ug/m3 1.64 ug/m3 87.41 ug/m3 10.09 ug/m3 21.76 C 87.88 % 1,007.45 mbar 1.1 m/s 296.47 Deg 0 ug/m3
2021-06-15 02:00 0 ug/m3 1.59 ug/m3 100.97 ug/m3 17.32 ug/m3 22.19 C 89.59 % 1,007.66 mbar 1.65 m/s 283.13 Deg 0 ug/m3
2021-06-15 01:00 0 ug/m3 1.67 ug/m3 102.83 ug/m3 28.01 ug/m3 22.34 C 84.4 % 1,007.83 mbar 1.66 m/s 278.1 Deg 0 ug/m3
2021-06-15 00:00 0 ug/m3 1.63 ug/m3 93.62 ug/m3 33.24 ug/m3 22.44 C 86.11 % 1,008.11 mbar 1.07 m/s 253.77 Deg 0 ug/m3
2021-06-14 23:00 0 ug/m3 1.38 ug/m3 102.19 ug/m3 14.82 ug/m3 23.03 C 77.06 % 1,008.44 mbar 0.98 m/s 277.22 Deg 0 ug/m3
2021-06-14 22:00 0 ug/m3 1.67 ug/m3 106.47 ug/m3 11.88 ug/m3 23.42 C 68.43 % 1,008.56 mbar 1.1 m/s 281.87 Deg 0 ug/m3
2021-06-14 21:00 0 ug/m3 1.57 ug/m3 113.01 ug/m3 12 ug/m3 23.76 C 66.72 % 1,008.35 mbar 1.28 m/s 284.88 Deg 0 ug/m3
2021-06-14 20:00 0 ug/m3 1.87 ug/m3 107.29 ug/m3 17.34 ug/m3 23.89 C 70.15 % 1,008.02 mbar 1.27 m/s 259.13 Deg 0 ug/m3
2021-06-14 19:00 0 ug/m3 1.63 ug/m3 98.52 ug/m3 33.65 ug/m3 24.04 C 75.96 % 1,007.84 mbar 2.11 m/s 229.17 Deg 0 ug/m3
2021-06-14 18:00 0 ug/m3 1.83 ug/m3 115.06 ug/m3 21.06 ug/m3 24.2 C 76.44 % 1,007.82 mbar 3.02 m/s 214.77 Deg 0 ug/m3
2021-06-14 17:00 0 ug/m3 1.97 ug/m3 127.65 ug/m3 9.06 ug/m3 24.54 C 67.21 % 1,008.29 mbar 3.7 m/s 173.78 Deg 0 ug/m3
2021-06-14 16:00 0 ug/m3 1.92 ug/m3 128.41 ug/m3 6.8 ug/m3 25.16 C 60.12 % 1,008.70 mbar 3.55 m/s 122.27 Deg 0 ug/m3
2021-06-14 15:00 0 ug/m3 1.89 ug/m3 124.53 ug/m3 10.12 ug/m3 25.75 C 57.05 % 1,009.17 mbar 2.81 m/s 79.67 Deg 0 ug/m3
2021-06-14 14:00 0 ug/m3 2.07 ug/m3 125.01 ug/m3 14.23 ug/m3 25.79 C 57.76 % 1,009.34 mbar 2.82 m/s 74.48 Deg 0 ug/m3
2021-06-14 13:00 0 ug/m3 1.78 ug/m3 109.1 ug/m3 22.71 ug/m3 24.68 C 75.65 % 1,009.78 mbar 2.79 m/s 61.15 Deg 0 ug/m3
2021-06-14 12:00 0 ug/m3 1.79 ug/m3 110.17 ug/m3 38.41 ug/m3 24.53 C 78.95 % 1,009.93 mbar 2.83 m/s 62.52 Deg 0 ug/m3
2021-06-14 11:00 0 ug/m3 1.89 ug/m3 96.66 ug/m3 30.74 ug/m3 24.7 C 73.18 % 1,009.79 mbar 3.8 m/s 68.97 Deg 0 ug/m3
2021-06-14 10:00 0 ug/m3 1.84 ug/m3 92.99 ug/m3 44.96 ug/m3 26.79 C 64.46 % 1,009.38 mbar 2.27 m/s 119.28 Deg 0 ug/m3
2021-06-14 09:00 0 ug/m3 1.92 ug/m3 87.02 ug/m3 28.83 ug/m3 26.15 C 67.32 % 1,009.27 mbar 1.63 m/s 243.87 Deg 0 ug/m3
2021-06-14 08:00 0 ug/m3 1.76 ug/m3 89.15 ug/m3 32.95 ug/m3 24.41 C 74.61 % 1,009.31 mbar 1.96 m/s 293.5 Deg 0 ug/m3
2021-06-14 07:00 0 ug/m3 1.63 ug/m3 79.73 ug/m3 44.46 ug/m3 22.8 C 80.23 % 1,009.39 mbar 1.95 m/s 301.53 Deg 0 ug/m3
2021-06-14 06:00 0 ug/m3 2.06 ug/m3 55.54 ug/m3 20.35 ug/m3 21.89 C 72.83 % 1,009.51 mbar 1.57 m/s 308.88 Deg 0 ug/m3
2021-06-14 05:00 0 ug/m3 1.95 ug/m3 58.71 ug/m3 10.71 ug/m3 21.97 C 54.64 % 1,009.20 mbar 1.08 m/s 312.35 Deg 0 ug/m3
2021-06-14 04:00 0 ug/m3 1.73 ug/m3 78.26 ug/m3 7.44 ug/m3 22.12 C 60.32 % 1,009.28 mbar 0.86 m/s 236.63 Deg 0 ug/m3
2021-06-14 03:00 0 ug/m3 1.65 ug/m3 96.07 ug/m3 6.89 ug/m3 22.38 C 58.2 % 1,009.53 mbar 0.81 m/s 263.85 Deg 0 ug/m3
2021-06-14 02:00 0 ug/m3 1.59 ug/m3 99.47 ug/m3 10.5 ug/m3 22.81 C 53.33 % 1,010.02 mbar 1.12 m/s 280.2 Deg 0 ug/m3
2021-06-14 01:00 0 ug/m3 1.64 ug/m3 87.33 ug/m3 16 ug/m3 22.72 C 52.91 % 1,010.61 mbar 0.62 m/s 260.68 Deg 0 ug/m3
2021-06-14 00:00 0 ug/m3 1.62 ug/m3 90.92 ug/m3 27.75 ug/m3 22.55 C 66.09 % 1,011.02 mbar 0.95 m/s 274.55 Deg 0 ug/m3
2021-06-13 23:00 0 ug/m3 1.68 ug/m3 95.22 ug/m3 32.94 ug/m3 22.75 C 78.11 % 1,011.13 mbar 1.19 m/s 286.38 Deg 0 ug/m3
2021-06-13 22:00 0 ug/m3 1.61 ug/m3 103.26 ug/m3 34.61 ug/m3 22.95 C 80.99 % 1,011.20 mbar 1.5 m/s 277.65 Deg 0 ug/m3
2021-06-13 21:00 0 ug/m3 1.51 ug/m3 87.35 ug/m3 33.7 ug/m3 23.52 C 79.34 % 1,010.87 mbar 1.85 m/s 259.12 Deg 0 ug/m3
2021-06-13 20:00 0 ug/m3 1.71 ug/m3 102.12 ug/m3 35.48 ug/m3 23.94 C 78.72 % 1,010.62 mbar 1.29 m/s 254.05 Deg 0 ug/m3
2021-06-13 19:00 0 ug/m3 1.68 ug/m3 123.06 ug/m3 26.72 ug/m3 24.7 C 73.72 % 1,010.43 mbar 1.75 m/s 102.32 Deg 0 ug/m3
2021-06-13 18:00 0 ug/m3 1.63 ug/m3 124.47 ug/m3 20.93 ug/m3 25.22 C 68.56 % 1,010.40 mbar 2.2 m/s 251.82 Deg 0 ug/m3
2021-06-13 17:00 0 ug/m3 1.78 ug/m3 128.8 ug/m3 10.16 ug/m3 25.11 C 62.42 % 1,010.56 mbar 2.73 m/s 202.1 Deg 0 ug/m3
2021-06-13 16:00 0 ug/m3 1.86 ug/m3 127.53 ug/m3 5.74 ug/m3 24.92 C 60.79 % 1,010.69 mbar 3.37 m/s 172.1 Deg 0 ug/m3
2021-06-13 15:00 0 ug/m3 1.96 ug/m3 150.22 ug/m3 6.33 ug/m3 25.19 C 63.72 % 1,010.82 mbar 3.38 m/s 127 Deg 0 ug/m3
2021-06-13 14:00 0 ug/m3 1.96 ug/m3 143.05 ug/m3 5.44 ug/m3 25.01 C 63.95 % 1,011.17 mbar 3.39 m/s 111.27 Deg 0 ug/m3
2021-06-13 13:00 0 ug/m3 1.92 ug/m3 130.94 ug/m3 4.36 ug/m3 25.24 C 60.79 % 1,011.49 mbar 2.93 m/s 92.65 Deg 0 ug/m3
2021-06-13 12:00 0 ug/m3 1.73 ug/m3 126.06 ug/m3 5.32 ug/m3 25.26 C 59.87 % 1,011.68 mbar 2.86 m/s 84.05 Deg 0 ug/m3
2021-06-13 11:00 0 ug/m3 1.62 ug/m3 121.94 ug/m3 10 ug/m3 25.08 C 58.95 % 1,011.56 mbar 2.3 m/s 79.43 Deg 0 ug/m3
2021-06-13 10:00 0 ug/m3 1.73 ug/m3 113.07 ug/m3 20.01 ug/m3 24.07 C 72.08 % 1,011.42 mbar 2.06 m/s 67.62 Deg 0 ug/m3
2021-06-13 09:00 0 ug/m3 1.52 ug/m3 108.44 ug/m3 31.2 ug/m3 23.18 C 80.73 % 1,011.43 mbar 2.16 m/s 46.62 Deg 0 ug/m3
2021-06-13 08:00 0 ug/m3 1.79 ug/m3 100.19 ug/m3 36.07 ug/m3 22.51 C 85.82 % 1,011.29 mbar 1.89 m/s 59.4 Deg 0 ug/m3
2021-06-13 07:00 0 ug/m3 1.71 ug/m3 66.75 ug/m3 40.29 ug/m3 21.96 C 87.63 % 1,010.78 mbar 1.03 m/s 127.42 Deg 0 ug/m3
2021-06-13 06:00 0 ug/m3 1.59 ug/m3 64.85 ug/m3 39.17 ug/m3 20.83 C 92.85 % 1,010.24 mbar 0.59 m/s 263.87 Deg 0 ug/m3
2021-06-13 05:00 0 ug/m3 1.66 ug/m3 61.97 ug/m3 25.32 ug/m3 20.57 C 93.72 % 1,010.00 mbar 0.52 m/s 263.73 Deg 0 ug/m3
2021-06-13 04:00 0 ug/m3 1.66 ug/m3 86.58 ug/m3 20.15 ug/m3 20.66 C 94.12 % 1,009.79 mbar 0.98 m/s 272.7 Deg 0 ug/m3
2021-06-13 03:00 0 ug/m3 1.68 ug/m3 68.25 ug/m3 21.96 ug/m3 21.57 C 80.29 % 1,010.02 mbar 1.21 m/s 268.88 Deg 0 ug/m3
2021-06-13 02:00 0 ug/m3 1.56 ug/m3 68.77 ug/m3 23.14 ug/m3 22.07 C 69.01 % 1,010.21 mbar 0.59 m/s 101.83 Deg 0 ug/m3
2021-06-13 01:00 0 ug/m3 1.72 ug/m3 82.55 ug/m3 15.3 ug/m3 22.49 C 64.47 % 1,010.48 mbar 1 m/s 300.05 Deg 0 ug/m3
2021-06-13 00:00 0 ug/m3 1.64 ug/m3 74.3 ug/m3 10.38 ug/m3 22.72 C 60.73 % 1,010.80 mbar 0.71 m/s 258.12 Deg 0 ug/m3
2021-06-12 23:00 0 ug/m3 1.73 ug/m3 79.86 ug/m3 12.18 ug/m3 23.16 C 57.77 % 1,010.68 mbar 1.35 m/s 312.35 Deg 0 ug/m3
2021-06-12 22:00 0 ug/m3 1.49 ug/m3 83.19 ug/m3 18.97 ug/m3 22.71 C 75.42 % 1,010.37 mbar 1.59 m/s 305.48 Deg 0 ug/m3
2021-06-12 21:00 0 ug/m3 1.39 ug/m3 91.74 ug/m3 33.82 ug/m3 23.09 C 76.8 % 1,010.00 mbar 2.06 m/s 311.42 Deg 0 ug/m3
2021-06-12 20:00 9.32 ug/m3 1.6 ug/m3 90.16 ug/m3 32.25 ug/m3 23.32 C 83.18 % 1,009.80 mbar 2.39 m/s 262.93 Deg 0.14 ug/m3
2021-06-12 19:00 13.9 ug/m3 1.7 ug/m3 100.13 ug/m3 42.63 ug/m3 24.04 C 79.1 % 1,009.51 mbar 2 m/s 177.98 Deg 0.61 ug/m3
2021-06-12 18:00 9.1 ug/m3 1.52 ug/m3 182.62 ug/m3 41.33 ug/m3 24.52 C 80.53 % 1,009.08 mbar 2.06 m/s 102.38 Deg 0.54 ug/m3
2021-06-12 17:00 3.17 ug/m3 1.61 ug/m3 112.22 ug/m3 18.48 ug/m3 25.17 C 74.88 % 1,009.01 mbar 2.67 m/s 235.52 Deg 0.42 ug/m3
2021-06-12 16:00 2.42 ug/m3 1.64 ug/m3 108.2 ug/m3 16.52 ug/m3 24.83 C 74.58 % 1,009.35 mbar 3.01 m/s 230.13 Deg 0.5 ug/m3
2021-06-12 15:00 8.6 ug/m3 1.73 ug/m3 111.23 ug/m3 22.87 ug/m3 25.05 C 72.23 % 1,009.19 mbar 3.12 m/s 184.2 Deg 1.07 ug/m3
2021-06-12 14:00 2.82 ug/m3 1.62 ug/m3 119.95 ug/m3 34.44 ug/m3 24.45 C 75.74 % 1,009.65 mbar 3.26 m/s 147.75 Deg 0.41 ug/m3
2021-06-12 13:00 3.76 ug/m3 1.59 ug/m3 118.14 ug/m3 23 ug/m3 25.08 C 76.3 % 1,009.83 mbar 3.63 m/s 108.73 Deg 0.25 ug/m3
2021-06-12 12:00 7.08 ug/m3 1.65 ug/m3 119.48 ug/m3 8.64 ug/m3 25.81 C 66.06 % 1,009.79 mbar 3.89 m/s 140.51 Deg 0.76 ug/m3
2021-06-12 11:00 12.99 ug/m3 1.72 ug/m3 112.03 ug/m3 6.77 ug/m3 27.07 C 47.54 % 1,009.80 mbar 2.12 m/s 243.55 Deg 1.72 ug/m3
2021-06-12 10:00 15.01 ug/m3 1.46 ug/m3 105.52 ug/m3 10.27 ug/m3 26.02 C 55.23 % 1,009.85 mbar 2.34 m/s 260.98 Deg 1.87 ug/m3
2021-06-12 09:00 16.26 ug/m3 1.62 ug/m3 99.44 ug/m3 18.67 ug/m3 24.75 C 64.56 % 1,009.73 mbar 2.16 m/s 287.35 Deg 2.73 ug/m3
2021-06-12 08:00 16.64 ug/m3 1.27 ug/m3 94.84 ug/m3 30.84 ug/m3 22.84 C 79.91 % 1,009.77 mbar 2.43 m/s 297.85 Deg 2.33 ug/m3
2021-06-12 07:00 19.27 ug/m3 1.39 ug/m3 82.89 ug/m3 39.69 ug/m3 21.37 C 88.16 % 1,009.60 mbar 2.69 m/s 310.45 Deg 2.07 ug/m3
2021-06-12 06:00 26.18 ug/m3 1.31 ug/m3 62.28 ug/m3 29.11 ug/m3 20.16 C 93.4 % 1,009.61 mbar 1.89 m/s 294.77 Deg 1.58 ug/m3
2021-06-12 05:00 12.95 ug/m3 1.46 ug/m3 73.62 ug/m3 18.83 ug/m3 20.13 C 91.68 % 1,009.15 mbar 1.29 m/s 271.9 Deg 0.34 ug/m3
2021-06-12 04:00 4.26 ug/m3 1.2 ug/m3 87.57 ug/m3 20.77 ug/m3 20.17 C 91.69 % 1,008.90 mbar 1.4 m/s 307.63 Deg 0.04 ug/m3
2021-06-12 03:00 3.03 ug/m3 1.48 ug/m3 98.85 ug/m3 23.77 ug/m3 20.71 C 86.84 % 1,008.89 mbar 1.82 m/s 265.08 Deg 0.07 ug/m3
2021-06-12 02:00 12.63 ug/m3 1.55 ug/m3 76.93 ug/m3 24.81 ug/m3 21 C 86.39 % 1,009.12 mbar 1.13 m/s 271.65 Deg -0.07 ug/m3
2021-06-12 01:00 18.74 ug/m3 1.57 ug/m3 70.19 ug/m3 26.07 ug/m3 21.24 C 87.4 % 1,009.27 mbar 1.14 m/s 246.42 Deg 0 ug/m3
2021-06-12 00:00 19.26 ug/m3 1.79 ug/m3 73.6 ug/m3 33.62 ug/m3 21.54 C 86.63 % 1,009.36 mbar 0.64 m/s 249.37 Deg 0.16 ug/m3
2021-06-11 23:00 18.86 ug/m3 1.81 ug/m3 87.44 ug/m3 34.67 ug/m3 22 C 82.39 % 1,009.38 mbar 1.02 m/s 203.8 Deg 0.46 ug/m3
2021-06-11 22:00 18 ug/m3 1.48 ug/m3 93.02 ug/m3 31.07 ug/m3 22.3 C 79.25 % 1,009.25 mbar 1.01 m/s 263.78 Deg 0.09 ug/m3
2021-06-11 21:00 31.74 ug/m3 1.61 ug/m3 83.99 ug/m3 32.42 ug/m3 22.36 C 83.83 % 1,008.57 mbar 1.15 m/s 194.85 Deg 0.2 ug/m3
2021-06-11 20:00 9.93 ug/m3 1.65 ug/m3 111.76 ug/m3 36.71 ug/m3 22.55 C 84.29 % 1,008.09 mbar 1.99 m/s 194.03 Deg 0.49 ug/m3
2021-06-11 19:00 10.72 ug/m3 1.58 ug/m3 130.74 ug/m3 27.95 ug/m3 23.52 C 78.04 % 1,007.58 mbar 2.62 m/s 79.47 Deg 0.42 ug/m3
2021-06-11 18:00 8.81 ug/m3 1.62 ug/m3 126.22 ug/m3 17.64 ug/m3 24.4 C 67.88 % 1,007.28 mbar 2.63 m/s 63.03 Deg 0.64 ug/m3
2021-06-11 17:00 9.49 ug/m3 1.66 ug/m3 121.94 ug/m3 21.69 ug/m3 25.6 C 56.74 % 1,007.25 mbar 2.08 m/s 84.38 Deg 3.79 ug/m3
2021-06-11 16:00 7.63 ug/m3 1.57 ug/m3 129.27 ug/m3 17.54 ug/m3 25.29 C 63.6 % 1,007.39 mbar 2.93 m/s 170.27 Deg 0.95 ug/m3
2021-06-11 15:00 20.02 ug/m3 1.76 ug/m3 112.08 ug/m3 19.73 ug/m3 24.74 C 67.25 % 1,007.77 mbar 3.28 m/s 159.25 Deg 2.85 ug/m3
2021-06-11 14:00 5.72 ug/m3 1.69 ug/m3 124.02 ug/m3 13.67 ug/m3 24.35 C 69.39 % 1,008.12 mbar 3.27 m/s 158.87 Deg 0.49 ug/m3

It is to be noted that the data is provisional and subject to quality assurance procedures. For validated data kindly refer your request to contact.air@era.org.mt